GEFSNGP_prec_meanprecacc_336.txt.gz
Total_Precipitation_Accumulation
0.57 0.56 0.58 0.61 0.54 0.51 0.64 0.78 1.19 1.54 1.94 2.31 2.36 2.34 2.40 2.61 2.51 2.22 2.07 1.91 1.82 1.83 1.89 1.86 1.78 1.78 1.80 1.98 2.05 2.25 2.38 2.37 2.30 2.23 2.19 2.18 2.11 1.96 1.81 1.69 1.62 1.74 1.73 1.72
0.62 0.50 0.60 0.62 0.62 0.67 0.77 0.93 1.22 1.57 2.12 2.40 2.38 2.35 2.40 2.49 2.46 2.25 1.95 1.81 1.79 1.77 1.86 1.77 1.69 1.64 1.64 1.82 1.88 1.98 2.10 2.11 2.03 2.01 2.11 2.09 2.01 1.87 1.77 1.68 1.61 1.63 1.62 1.56
0.94 0.61 0.85 1.19 0.95 0.98 1.10 1.17 1.37 1.82 2.07 2.17 2.28 2.30 2.34 2.41 2.48 2.37 2.08 1.95 2.01 2.06 2.06 1.90 1.74 1.67 1.75 1.85 1.90 1.92 1.95 1.91 1.93 1.92 1.91 1.90 1.75 1.66 1.68 1.73 1.62 1.54 1.46 1.38
1.03 1.19 1.77 1.57 0.95 1.01 1.22 1.32 1.30 1.42 1.57 1.77 1.95 2.04 2.20 2.36 2.50 2.49 2.35 2.30 2.32 2.32 2.12 1.94 1.83 1.78 1.83 1.83 1.87 1.97 1.91 1.79 1.75 1.76 1.71 1.69 1.69 1.67 1.66 1.66 1.60 1.52 1.41 1.32
1.39 1.75 1.94 1.65 1.05 1.01 1.42 1.75 1.43 1.38 1.39 1.42 1.46 1.67 2.11 2.19 2.25 2.38 2.34 2.31 2.23 2.17 2.05 1.88 1.78 1.75 1.74 1.77 1.73 1.74 1.66 1.61 1.54 1.53 1.59 1.62 1.59 1.68 1.67 1.59 1.54 1.44 1.36 1.35
1.67 2.12 2.44 2.11 1.10 0.84 1.37 2.29 1.70 1.47 1.49 1.53 1.68 1.99 2.01 1.81 1.78 1.86 1.86 1.86 1.92 1.96 1.91 1.75 1.63 1.59 1.64 1.68 1.65 1.59 1.56 1.55 1.47 1.46 1.49 1.53 1.55 1.60 1.55 1.53 1.50 1.38 1.31 1.34
1.68 2.15 2.32 1.48 0.95 1.08 2.25 2.72 1.92 1.60 1.57 1.71 1.88 1.86 1.54 1.39 1.41 1.48 1.59 1.59 1.61 1.79 1.85 1.68 1.48 1.45 1.55 1.56 1.55 1.42 1.41 1.50 1.52 1.50 1.49 1.49 1.51 1.54 1.51 1.48 1.52 1.51 1.46 1.45
1.74 2.27 2.46 1.34 1.13 1.72 2.17 1.76 1.63 1.59 1.53 1.54 1.45 1.29 1.22 1.19 1.21 1.21 1.38 1.50 1.49 1.63 1.61 1.47 1.37 1.46 1.54 1.52 1.42 1.36 1.41 1.56 1.58 1.58 1.45 1.42 1.58 1.61 1.54 1.51 1.47 1.54 1.55 1.52
1.97 2.27 1.90 1.28 1.30 1.42 1.43 1.46 1.37 1.32 1.22 1.15 1.17 1.14 1.10 1.17 1.25 1.27 1.37 1.46 1.43 1.52 1.51 1.39 1.36 1.44 1.51 1.46 1.38 1.43 1.52 1.58 1.63 1.57 1.55 1.54 1.60 1.61 1.54 1.51 1.43 1.40 1.41 1.41
1.59 1.59 1.28 1.14 1.11 1.11 1.14 1.27 1.23 1.16 1.16 1.02 1.07 1.11 1.14 1.18 1.28 1.32 1.35 1.38 1.42 1.49 1.45 1.36 1.27 1.29 1.35 1.26 1.26 1.43 1.60 1.57 1.58 1.60 1.59 1.57 1.53 1.46 1.41 1.38 1.32 1.28 1.26 1.26
1.58 1.39 1.20 1.04 0.93 0.95 1.05 1.07 1.07 1.13 1.19 1.14 1.14 1.20 1.14 1.08 1.13 1.20 1.26 1.30 1.33 1.42 1.42 1.28 1.20 1.18 1.19 1.23 1.31 1.46 1.50 1.48 1.47 1.50 1.51 1.50 1.38 1.28 1.28 1.21 1.09 1.03 1.01 1.00
1.63 1.36 1.42 1.27 0.98 0.91 1.11 1.20 1.11 1.09 1.14 1.09 1.07 1.13 1.16 1.18 1.15 1.17 1.24 1.29 1.33 1.30 1.26 1.17 1.06 1.04 1.08 1.15 1.21 1.34 1.33 1.30 1.30 1.37 1.40 1.34 1.31 1.20 1.10 1.01 1.02 0.97 0.91 0.92
1.20 1.06 1.08 1.05 1.01 1.10 1.23 1.19 1.05 1.04 1.01 0.99 1.04 1.05 1.13 1.21 1.13 1.13 1.19 1.23 1.29 1.20 1.12 1.10 1.05 1.05 1.07 1.03 1.04 1.14 1.20 1.19 1.11 1.12 1.22 1.23 1.22 1.19 1.19 1.02 0.92 0.90 0.87 0.89
0.91 1.01 1.18 1.19 1.25 1.26 1.18 1.06 0.98 0.94 0.94 0.91 0.90 0.97 1.00 1.03 0.96 0.99 1.12 1.15 1.12 1.08 1.05 1.07 1.06 1.05 0.97 0.95 1.04 1.10 1.09 1.03 1.01 1.06 1.06 1.06 1.09 1.03 1.00 1.07 1.08 1.02 0.95 0.95
0.85 0.94 1.06 1.01 1.00 1.05 1.00 0.89 0.84 0.88 0.89 0.94 0.91 0.94 0.94 0.93 0.90 0.88 0.97 0.98 0.97 0.99 0.99 0.96 0.95 0.98 0.94 0.93 0.98 1.02 0.97 0.95 0.95 0.96 1.00 1.03 1.03 0.97 0.91 0.92 0.98 1.04 1.04 0.97
0.73 0.68 0.71 0.74 0.80 0.87 0.89 0.85 0.83 0.87 0.87 0.94 1.00 0.96 0.90 0.84 0.82 0.78 0.82 0.86 1.00 1.05 0.94 0.89 0.88 0.89 0.88 0.92 0.96 0.93 0.90 0.88 0.85 0.85 0.89 0.94 0.95 0.94 0.95 0.93 0.90 0.99 1.02 0.92
0.76 0.78 0.76 0.69 0.67 0.70 0.73 0.73 0.73 0.81 0.83 0.87 0.89 0.80 0.74 0.73 0.77 0.78 0.85 0.90 0.93 0.91 0.84 0.82 0.79 0.70 0.71 0.81 0.86 0.80 0.73 0.71 0.70 0.67 0.72 0.76 0.77 0.82 0.87 0.85 0.89 0.94 0.90 0.85
0.71 0.72 0.69 0.65 0.61 0.57 0.60 0.63 0.68 0.76 0.80 0.78 0.75 0.72 0.71 0.73 0.76 0.77 0.79 0.83 0.83 0.80 0.75 0.70 0.68 0.64 0.60 0.65 0.72 0.70 0.67 0.66 0.58 0.58 0.60 0.64 0.66 0.68 0.70 0.74 0.78 0.80 0.77 0.76
0.55 0.51 0.51 0.54 0.52 0.48 0.51 0.55 0.65 0.71 0.73 0.71 0.75 0.81 0.81 0.78 0.77 0.73 0.75 0.83 0.86 0.86 0.78 0.67 0.69 0.65 0.61 0.63 0.67 0.63 0.63 0.66 0.62 0.61 0.62 0.65 0.65 0.66 0.63 0.61 0.67 0.74 0.73 0.71
0.49 0.44 0.46 0.47 0.43 0.42 0.46 0.48 0.55 0.62 0.65 0.64 0.68 0.78 0.85 0.84 0.76 0.76 0.82 0.89 0.92 0.84 0.72 0.67 0.63 0.64 0.62 0.58 0.60 0.59 0.62 0.65 0.63 0.58 0.60 0.65 0.66 0.64 0.60 0.58 0.65 0.73 0.76 0.76
0.52 0.49 0.49 0.48 0.46 0.47 0.50 0.53 0.55 0.54 0.53 0.59 0.66 0.70 0.78 0.81 0.75 0.79 0.87 0.94 0.87 0.74 0.65 0.67 0.64 0.61 0.60 0.57 0.55 0.55 0.57 0.59 0.59 0.56 0.57 0.62 0.62 0.58 0.58 0.59 0.59 0.68 0.76 0.80
0.49 0.54 0.58 0.54 0.51 0.55 0.56 0.57 0.55 0.52 0.46 0.47 0.50 0.53 0.63 0.70 0.67 0.71 0.78 0.88 0.83 0.72 0.63 0.60 0.57 0.58 0.60 0.57 0.50 0.50 0.55 0.59 0.57 0.61 0.62 0.58 0.59 0.60 0.59 0.60 0.60 0.61 0.66 0.74
0.54 0.61 0.66 0.61 0.56 0.51 0.48 0.51 0.55 0.54 0.50 0.44 0.43 0.49 0.59 0.62 0.59 0.63 0.66 0.64 0.63 0.66 0.61 0.59 0.62 0.62 0.59 0.52 0.52 0.56 0.57 0.58 0.58 0.60 0.60 0.60 0.59 0.62 0.65 0.63 0.63 0.65 0.71 0.76
0.60 0.66 0.63 0.59 0.57 0.57 0.56 0.51 0.51 0.50 0.47 0.44 0.44 0.47 0.53 0.54 0.53 0.52 0.54 0.57 0.59 0.58 0.54 0.59 0.62 0.57 0.54 0.48 0.52 0.58 0.60 0.56 0.55 0.57 0.60 0.62 0.61 0.62 0.68 0.73 0.75 0.76 0.76 0.71
0.66 0.70 0.64 0.62 0.68 0.74 0.66 0.55 0.50 0.47 0.45 0.44 0.44 0.45 0.44 0.46 0.47 0.50 0.52 0.52 0.57 0.55 0.50 0.53 0.54 0.50 0.48 0.50 0.54 0.56 0.59 0.59 0.61 0.60 0.60 0.66 0.65 0.64 0.66 0.69 0.73 0.70 0.65 0.64
0.73 0.74 0.66 0.65 0.68 0.70 0.67 0.64 0.60 0.54 0.51 0.50 0.47 0.42 0.41 0.42 0.45 0.50 0.54 0.54 0.58 0.56 0.52 0.53 0.53 0.52 0.50 0.52 0.54 0.56 0.60 0.61 0.63 0.64 0.62 0.67 0.70 0.69 0.67 0.69 0.72 0.67 0.62 0.61
0.76 0.70 0.67 0.62 0.58 0.56 0.63 0.67 0.64 0.59 0.55 0.54 0.51 0.45 0.44 0.45 0.44 0.43 0.46 0.50 0.53 0.51 0.52 0.56 0.53 0.48 0.48 0.50 0.53 0.58 0.61 0.60 0.59 0.62 0.64 0.65 0.70 0.73 0.71 0.67 0.68 0.67 0.64 0.62

GEFSNGP_prec_meanprecacc_342.txt.gz
Total_Precipitation_Accumulation
0.57 0.56 0.59 0.61 0.54 0.51 0.64 0.78 1.19 1.54 1.94 2.31 2.36 2.34 2.41 2.62 2.52 2.23 2.08 1.92 1.83 1.84 1.91 1.87 1.80 1.80 1.84 2.01 2.08 2.28 2.42 2.41 2.34 2.27 2.23 2.21 2.15 2.00 1.86 1.75 1.66 1.78 1.76 1.75
0.63 0.50 0.60 0.62 0.62 0.67 0.78 0.93 1.22 1.58 2.13 2.41 2.38 2.36 2.41 2.51 2.48 2.26 1.97 1.83 1.80 1.78 1.88 1.80 1.72 1.67 1.67 1.86 1.91 2.01 2.13 2.14 2.06 2.04 2.14 2.12 2.06 1.91 1.81 1.72 1.66 1.67 1.66 1.59
0.94 0.61 0.86 1.20 0.95 0.98 1.10 1.17 1.38 1.83 2.08 2.17 2.28 2.31 2.36 2.43 2.51 2.39 2.11 1.98 2.02 2.08 2.09 1.94 1.78 1.72 1.78 1.89 1.94 1.97 1.99 1.93 1.94 1.95 1.95 1.95 1.80 1.71 1.73 1.77 1.66 1.57 1.50 1.41
1.03 1.19 1.78 1.58 0.95 1.01 1.23 1.32 1.31 1.42 1.57 1.77 1.96 2.06 2.22 2.38 2.52 2.51 2.37 2.32 2.35 2.34 2.15 1.97 1.86 1.81 1.86 1.87 1.91 2.01 1.95 1.83 1.77 1.79 1.73 1.72 1.73 1.72 1.70 1.70 1.63 1.55 1.44 1.35
1.40 1.76 1.95 1.66 1.06 1.02 1.43 1.76 1.44 1.38 1.40 1.42 1.47 1.69 2.14 2.22 2.29 2.41 2.38 2.35 2.27 2.21 2.08 1.91 1.80 1.76 1.76 1.79 1.75 1.76 1.68 1.64 1.57 1.56 1.61 1.64 1.63 1.72 1.72 1.63 1.57 1.47 1.38 1.38
1.68 2.14 2.45 2.12 1.11 0.84 1.38 2.31 1.71 1.48 1.50 1.54 1.70 2.02 2.05 1.85 1.82 1.90 1.90 1.91 1.98 2.02 1.96 1.79 1.66 1.62 1.67 1.69 1.67 1.61 1.57 1.57 1.49 1.48 1.52 1.57 1.58 1.64 1.61 1.58 1.55 1.41 1.34 1.37
1.69 2.17 2.34 1.50 0.96 1.09 2.28 2.75 1.93 1.60 1.58 1.73 1.91 1.90 1.58 1.43 1.46 1.54 1.67 1.67 1.71 1.90 1.93 1.73 1.53 1.50 1.58 1.59 1.57 1.43 1.42 1.52 1.54 1.52 1.51 1.52 1.54 1.58 1.57 1.54 1.57 1.55 1.50 1.48
1.75 2.29 2.48 1.35 1.15 1.75 2.21 1.78 1.65 1.61 1.56 1.57 1.48 1.34 1.26 1.24 1.25 1.26 1.45 1.59 1.61 1.75 1.68 1.52 1.42 1.50 1.58 1.55 1.43 1.38 1.43 1.59 1.61 1.60 1.48 1.44 1.62 1.66 1.59 1.56 1.52 1.58 1.59 1.55
1.98 2.29 1.91 1.28 1.32 1.44 1.46 1.49 1.40 1.36 1.25 1.18 1.20 1.18 1.16 1.23 1.30 1.31 1.42 1.53 1.54 1.61 1.55 1.43 1.39 1.47 1.55 1.49 1.40 1.45 1.54 1.61 1.66 1.60 1.58 1.55 1.62 1.63 1.57 1.55 1.46 1.43 1.44 1.44
1.60 1.61 1.29 1.14 1.12 1.12 1.16 1.29 1.25 1.18 1.19 1.05 1.10 1.15 1.19 1.24 1.34 1.37 1.39 1.44 1.49 1.55 1.49 1.38 1.29 1.32 1.38 1.29 1.28 1.45 1.62 1.59 1.61 1.62 1.62 1.59 1.56 1.47 1.43 1.40 1.34 1.30 1.28 1.28
1.62 1.42 1.21 1.05 0.95 0.96 1.06 1.08 1.08 1.14 1.21 1.17 1.17 1.23 1.19 1.12 1.17 1.24 1.30 1.35 1.38 1.46 1.47 1.33 1.23 1.20 1.20 1.25 1.33 1.48 1.51 1.50 1.50 1.53 1.55 1.54 1.41 1.30 1.29 1.23 1.12 1.05 1.03 1.02
1.70 1.40 1.46 1.30 1.00 0.93 1.12 1.22 1.13 1.11 1.16 1.12 1.10 1.16 1.20 1.21 1.18 1.20 1.27 1.32 1.37 1.34 1.30 1.20 1.09 1.06 1.10 1.18 1.24 1.37 1.35 1.32 1.33 1.41 1.44 1.38 1.34 1.21 1.12 1.02 1.04 0.98 0.93 0.94
1.23 1.09 1.11 1.07 1.03 1.12 1.24 1.21 1.07 1.06 1.03 1.01 1.06 1.08 1.16 1.24 1.16 1.16 1.22 1.27 1.33 1.25 1.17 1.14 1.08 1.07 1.09 1.05 1.07 1.17 1.24 1.22 1.13 1.15 1.24 1.25 1.24 1.20 1.21 1.04 0.95 0.92 0.89 0.92
0.94 1.03 1.20 1.20 1.26 1.28 1.20 1.07 0.99 0.95 0.95 0.93 0.91 0.98 1.02 1.05 0.98 1.01 1.14 1.19 1.16 1.12 1.09 1.11 1.10 1.07 0.99 0.98 1.07 1.14 1.13 1.07 1.04 1.08 1.08 1.08 1.11 1.05 1.02 1.08 1.11 1.06 0.98 0.98
0.87 0.95 1.07 1.02 1.01 1.07 1.02 0.91 0.87 0.91 0.92 0.96 0.92 0.95 0.95 0.95 0.92 0.89 0.98 1.00 1.00 1.04 1.03 1.00 0.98 1.01 0.96 0.95 1.01 1.06 1.02 1.00 1.01 1.01 1.04 1.06 1.06 1.00 0.93 0.94 1.00 1.06 1.07 0.99
0.74 0.70 0.73 0.76 0.83 0.90 0.92 0.88 0.87 0.94 0.92 0.97 1.02 0.97 0.91 0.85 0.83 0.80 0.84 0.88 1.03 1.09 0.98 0.92 0.91 0.92 0.90 0.94 0.99 0.97 0.95 0.93 0.92 0.92 0.95 0.99 1.00 0.98 0.98 0.96 0.93 1.00 1.04 0.95
0.81 0.83 0.80 0.72 0.69 0.73 0.78 0.78 0.81 0.90 0.89 0.89 0.90 0.81 0.75 0.74 0.78 0.80 0.87 0.92 0.96 0.95 0.88 0.85 0.82 0.73 0.72 0.82 0.88 0.83 0.77 0.76 0.75 0.73 0.78 0.81 0.81 0.86 0.92 0.89 0.92 0.97 0.93 0.88
0.77 0.78 0.74 0.69 0.64 0.60 0.64 0.69 0.76 0.81 0.82 0.80 0.76 0.73 0.72 0.74 0.78 0.78 0.81 0.86 0.86 0.83 0.78 0.74 0.72 0.67 0.63 0.66 0.74 0.73 0.70 0.69 0.62 0.62 0.64 0.67 0.70 0.72 0.73 0.77 0.80 0.82 0.79 0.79
0.60 0.58 0.57 0.59 0.56 0.51 0.55 0.60 0.69 0.74 0.75 0.72 0.76 0.82 0.83 0.80 0.79 0.75 0.78 0.86 0.88 0.88 0.80 0.70 0.73 0.69 0.65 0.66 0.68 0.65 0.65 0.68 0.66 0.64 0.65 0.69 0.69 0.70 0.67 0.64 0.70 0.77 0.76 0.73
0.53 0.49 0.50 0.50 0.47 0.45 0.49 0.51 0.57 0.64 0.67 0.65 0.69 0.79 0.87 0.86 0.78 0.78 0.85 0.93 0.94 0.86 0.75 0.70 0.66 0.68 0.66 0.62 0.62 0.61 0.64 0.68 0.66 0.61 0.64 0.69 0.71 0.69 0.65 0.63 0.70 0.78 0.80 0.79
0.55 0.52 0.51 0.49 0.48 0.49 0.52 0.55 0.57 0.56 0.55 0.61 0.67 0.72 0.80 0.82 0.77 0.81 0.90 0.98 0.89 0.75 0.67 0.69 0.66 0.64 0.63 0.61 0.58 0.58 0.60 0.62 0.63 0.60 0.61 0.66 0.67 0.64 0.65 0.66 0.66 0.74 0.81 0.83
0.50 0.55 0.59 0.55 0.52 0.55 0.58 0.59 0.58 0.54 0.48 0.49 0.52 0.56 0.66 0.72 0.68 0.73 0.81 0.92 0.86 0.74 0.64 0.61 0.58 0.60 0.61 0.59 0.52 0.52 0.58 0.61 0.61 0.64 0.65 0.61 0.62 0.63 0.64 0.66 0.66 0.67 0.71 0.78
0.55 0.62 0.67 0.62 0.57 0.52 0.49 0.53 0.57 0.56 0.52 0.47 0.46 0.52 0.61 0.64 0.61 0.64 0.68 0.67 0.66 0.69 0.63 0.61 0.64 0.64 0.60 0.54 0.54 0.59 0.61 0.62 0.62 0.64 0.63 0.64 0.63 0.66 0.68 0.66 0.68 0.70 0.75 0.80
0.60 0.67 0.64 0.60 0.58 0.58 0.57 0.53 0.53 0.52 0.49 0.46 0.47 0.50 0.55 0.56 0.55 0.53 0.55 0.57 0.59 0.59 0.55 0.61 0.64 0.60 0.57 0.50 0.55 0.61 0.64 0.60 0.60 0.62 0.64 0.66 0.65 0.66 0.71 0.76 0.78 0.79 0.79 0.75
0.66 0.71 0.65 0.63 0.69 0.74 0.67 0.57 0.51 0.49 0.46 0.46 0.46 0.47 0.46 0.48 0.49 0.51 0.53 0.53 0.58 0.56 0.50 0.54 0.55 0.51 0.48 0.51 0.56 0.59 0.61 0.61 0.63 0.63 0.63 0.70 0.68 0.67 0.68 0.72 0.76 0.72 0.67 0.67
0.74 0.75 0.67 0.67 0.69 0.71 0.68 0.65 0.62 0.56 0.54 0.52 0.49 0.43 0.42 0.44 0.46 0.50 0.54 0.55 0.59 0.57 0.53 0.54 0.54 0.53 0.51 0.53 0.56 0.58 0.61 0.62 0.64 0.65 0.64 0.69 0.73 0.72 0.69 0.72 0.74 0.69 0.65 0.63
0.78 0.71 0.68 0.63 0.59 0.58 0.64 0.69 0.66 0.63 0.58 0.56 0.53 0.46 0.45 0.46 0.45 0.44 0.46 0.51 0.54 0.52 0.52 0.57 0.54 0.49 0.49 0.52 0.55 0.59 0.62 0.60 0.59 0.62 0.64 0.66 0.72 0.76 0.73 0.70 0.71 0.70 0.66 0.65

GEFSNGP_prec_meanprecacc_348.txt.gz
Total_Precipitation_Accumulation
0.58 0.57 0.59 0.61 0.54 0.51 0.65 0.79 1.20 1.57 1.99 2.38 2.43 2.37 2.43 2.66 2.55 2.27 2.10 1.95 1.86 1.86 1.94 1.91 1.85 1.89 1.92 2.07 2.13 2.32 2.46 2.45 2.38 2.32 2.29 2.27 2.20 2.05 1.92 1.81 1.73 1.86 1.85 1.81
0.64 0.51 0.60 0.62 0.62 0.67 0.78 0.93 1.24 1.61 2.18 2.47 2.43 2.40 2.44 2.54 2.52 2.31 2.01 1.86 1.82 1.79 1.90 1.82 1.74 1.72 1.75 1.93 1.97 2.07 2.18 2.19 2.10 2.09 2.20 2.19 2.13 2.00 1.87 1.79 1.72 1.74 1.73 1.64
0.96 0.62 0.87 1.21 0.95 0.99 1.11 1.20 1.42 1.88 2.13 2.21 2.31 2.35 2.39 2.48 2.57 2.44 2.16 2.02 2.04 2.10 2.11 1.96 1.82 1.76 1.83 1.93 1.99 2.02 2.04 1.97 1.99 2.00 2.00 2.01 1.86 1.78 1.80 1.84 1.73 1.64 1.56 1.47
1.05 1.20 1.81 1.60 0.96 1.02 1.25 1.39 1.37 1.47 1.61 1.80 1.99 2.08 2.25 2.41 2.57 2.58 2.44 2.38 2.38 2.37 2.18 2.01 1.91 1.87 1.93 1.93 1.96 2.06 1.99 1.86 1.80 1.82 1.78 1.78 1.79 1.78 1.77 1.78 1.72 1.63 1.50 1.40
1.43 1.79 1.98 1.69 1.07 1.02 1.46 1.85 1.48 1.43 1.45 1.48 1.52 1.72 2.18 2.25 2.32 2.48 2.45 2.44 2.37 2.30 2.14 1.96 1.86 1.82 1.82 1.86 1.81 1.80 1.71 1.67 1.59 1.58 1.64 1.68 1.68 1.78 1.80 1.72 1.65 1.54 1.45 1.44
1.71 2.18 2.50 2.17 1.12 0.85 1.42 2.40 1.75 1.50 1.54 1.60 1.76 2.08 2.11 1.88 1.85 1.97 1.99 2.02 2.10 2.13 2.04 1.86 1.73 1.68 1.73 1.76 1.73 1.66 1.61 1.61 1.52 1.50 1.54 1.60 1.62 1.69 1.67 1.67 1.64 1.50 1.42 1.43
1.74 2.22 2.41 1.56 0.98 1.10 2.33 2.81 1.96 1.63 1.61 1.76 1.95 1.97 1.64 1.46 1.50 1.58 1.75 1.76 1.80 2.00 2.05 1.83 1.63 1.59 1.67 1.67 1.64 1.48 1.45 1.55 1.60 1.56 1.54 1.54 1.56 1.61 1.62 1.61 1.64 1.61 1.57 1.54
1.81 2.37 2.57 1.40 1.17 1.79 2.26 1.82 1.68 1.64 1.59 1.61 1.53 1.38 1.30 1.28 1.29 1.30 1.49 1.64 1.67 1.83 1.78 1.63 1.53 1.63 1.69 1.64 1.51 1.44 1.49 1.65 1.67 1.65 1.51 1.46 1.65 1.69 1.64 1.62 1.58 1.63 1.65 1.61
2.04 2.36 1.98 1.31 1.33 1.45 1.48 1.52 1.42 1.40 1.28 1.21 1.24 1.21 1.20 1.27 1.33 1.34 1.44 1.57 1.60 1.67 1.63 1.51 1.49 1.61 1.69 1.61 1.48 1.51 1.61 1.69 1.74 1.65 1.62 1.60 1.65 1.67 1.62 1.61 1.53 1.48 1.48 1.49
1.64 1.65 1.32 1.16 1.12 1.12 1.16 1.30 1.26 1.20 1.21 1.08 1.14 1.19 1.22 1.27 1.37 1.40 1.43 1.49 1.54 1.61 1.55 1.45 1.36 1.39 1.47 1.40 1.37 1.53 1.69 1.67 1.69 1.69 1.68 1.66 1.63 1.54 1.49 1.47 1.42 1.36 1.33 1.34
1.66 1.46 1.25 1.08 0.96 0.97 1.07 1.09 1.09 1.15 1.22 1.18 1.20 1.26 1.22 1.16 1.21 1.28 1.34 1.40 1.44 1.53 1.55 1.39 1.27 1.25 1.25 1.30 1.41 1.56 1.58 1.56 1.56 1.59 1.61 1.61 1.48 1.37 1.37 1.31 1.20 1.13 1.10 1.09
1.74 1.45 1.51 1.34 1.01 0.93 1.13 1.23 1.13 1.12 1.17 1.13 1.12 1.18 1.22 1.24 1.21 1.24 1.30 1.36 1.43 1.42 1.37 1.27 1.14 1.10 1.14 1.22 1.29 1.43 1.41 1.38 1.39 1.47 1.50 1.45 1.42 1.30 1.20 1.10 1.11 1.05 1.00 1.02
1.25 1.11 1.13 1.09 1.05 1.14 1.26 1.22 1.07 1.07 1.04 1.02 1.07 1.09 1.18 1.26 1.19 1.19 1.25 1.30 1.38 1.30 1.22 1.20 1.14 1.13 1.14 1.10 1.12 1.23 1.29 1.27 1.19 1.21 1.31 1.32 1.31 1.28 1.29 1.11 1.01 0.98 0.96 0.97
0.95 1.04 1.22 1.23 1.28 1.29 1.22 1.10 1.01 0.97 0.97 0.94 0.92 1.00 1.03 1.06 0.99 1.03 1.17 1.23 1.20 1.16 1.13 1.16 1.15 1.12 1.04 1.03 1.12 1.19 1.18 1.12 1.09 1.15 1.16 1.16 1.19 1.12 1.11 1.18 1.19 1.12 1.03 1.02
0.88 0.96 1.07 1.03 1.02 1.08 1.03 0.93 0.91 0.95 0.95 0.98 0.93 0.97 0.97 0.96 0.93 0.91 1.01 1.03 1.03 1.07 1.06 1.03 1.01 1.04 1.00 1.00 1.07 1.11 1.08 1.06 1.06 1.06 1.10 1.14 1.14 1.08 1.00 1.02 1.08 1.11 1.11 1.02
0.76 0.71 0.73 0.78 0.85 0.92 0.93 0.89 0.89 0.99 0.96 1.00 1.04 0.99 0.93 0.87 0.84 0.81 0.86 0.91 1.06 1.11 1.00 0.95 0.93 0.94 0.94 0.99 1.04 1.03 1.01 0.98 0.96 0.98 1.01 1.05 1.07 1.06 1.05 1.02 0.98 1.04 1.07 0.98
0.82 0.84 0.81 0.73 0.71 0.75 0.79 0.81 0.85 0.96 0.94 0.93 0.92 0.82 0.76 0.75 0.80 0.82 0.90 0.95 0.98 0.97 0.90 0.88 0.84 0.75 0.75 0.86 0.93 0.88 0.83 0.82 0.79 0.77 0.81 0.85 0.86 0.90 0.96 0.93 0.95 0.99 0.95 0.91
0.78 0.79 0.75 0.70 0.65 0.63 0.67 0.72 0.82 0.86 0.87 0.84 0.79 0.75 0.74 0.76 0.81 0.81 0.84 0.89 0.88 0.85 0.81 0.77 0.75 0.70 0.65 0.71 0.79 0.78 0.75 0.75 0.67 0.67 0.68 0.71 0.73 0.74 0.76 0.79 0.82 0.84 0.81 0.81
0.61 0.59 0.58 0.60 0.57 0.53 0.57 0.63 0.74 0.77 0.78 0.77 0.80 0.85 0.86 0.81 0.81 0.78 0.80 0.88 0.91 0.90 0.83 0.74 0.76 0.71 0.68 0.69 0.72 0.68 0.69 0.73 0.71 0.69 0.71 0.73 0.73 0.72 0.69 0.67 0.73 0.79 0.78 0.74
0.55 0.51 0.53 0.53 0.49 0.47 0.52 0.54 0.60 0.66 0.69 0.67 0.71 0.82 0.90 0.88 0.80 0.81 0.88 0.96 0.97 0.89 0.78 0.74 0.70 0.71 0.69 0.65 0.65 0.64 0.67 0.72 0.71 0.67 0.69 0.74 0.75 0.72 0.67 0.64 0.72 0.80 0.82 0.81
0.57 0.55 0.54 0.53 0.51 0.52 0.55 0.58 0.60 0.58 0.57 0.62 0.69 0.74 0.82 0.85 0.79 0.84 0.94 1.03 0.94 0.79 0.69 0.72 0.69 0.66 0.66 0.64 0.61 0.61 0.63 0.66 0.68 0.65 0.65 0.71 0.71 0.68 0.68 0.69 0.69 0.77 0.84 0.86
0.52 0.58 0.62 0.59 0.56 0.59 0.62 0.63 0.61 0.55 0.49 0.50 0.54 0.57 0.67 0.74 0.71 0.76 0.85 0.96 0.89 0.77 0.66 0.63 0.60 0.62 0.65 0.64 0.57 0.57 0.62 0.66 0.65 0.68 0.69 0.65 0.66 0.67 0.68 0.69 0.70 0.71 0.74 0.82
0.57 0.65 0.70 0.65 0.60 0.56 0.53 0.58 0.61 0.58 0.53 0.48 0.48 0.53 0.62 0.67 0.64 0.67 0.70 0.69 0.69 0.71 0.65 0.62 0.66 0.66 0.63 0.57 0.58 0.63 0.64 0.65 0.65 0.67 0.67 0.67 0.67 0.70 0.73 0.72 0.73 0.74 0.79 0.84
0.63 0.70 0.67 0.62 0.60 0.61 0.61 0.57 0.58 0.56 0.52 0.48 0.49 0.52 0.57 0.58 0.57 0.55 0.57 0.59 0.61 0.61 0.57 0.63 0.66 0.61 0.58 0.52 0.58 0.65 0.67 0.64 0.62 0.65 0.68 0.70 0.68 0.70 0.76 0.81 0.84 0.83 0.83 0.79
0.68 0.74 0.68 0.65 0.71 0.77 0.71 0.60 0.55 0.53 0.50 0.49 0.49 0.50 0.48 0.49 0.50 0.52 0.54 0.53 0.58 0.57 0.51 0.55 0.56 0.52 0.49 0.53 0.59 0.63 0.65 0.65 0.67 0.66 0.67 0.74 0.73 0.71 0.72 0.77 0.81 0.77 0.71 0.70
0.75 0.77 0.70 0.69 0.71 0.73 0.71 0.69 0.66 0.61 0.57 0.55 0.53 0.47 0.44 0.45 0.47 0.52 0.56 0.55 0.59 0.58 0.53 0.55 0.55 0.55 0.52 0.55 0.58 0.61 0.64 0.65 0.66 0.68 0.66 0.72 0.77 0.76 0.74 0.76 0.79 0.74 0.67 0.65
0.79 0.74 0.70 0.65 0.61 0.60 0.66 0.72 0.70 0.66 0.61 0.60 0.57 0.50 0.47 0.48 0.46 0.45 0.48 0.51 0.54 0.52 0.53 0.57 0.55 0.50 0.50 0.53 0.56 0.60 0.64 0.62 0.61 0.63 0.65 0.67 0.74 0.79 0.77 0.74 0.75 0.73 0.69 0.67

GEFSNGP_prec_meanprecacc_354.txt.gz
Total_Precipitation_Accumulation
0.58 0.57 0.59 0.62 0.55 0.52 0.65 0.79 1.21 1.58 2.00 2.40 2.54 2.52 2.53 2.72 2.59 2.31 2.16 2.02 1.95 1.95 2.00 1.95 1.89 1.93 1.98 2.14 2.19 2.39 2.53 2.51 2.45 2.41 2.38 2.36 2.29 2.13 2.01 1.89 1.79 1.92 1.91 1.86
0.64 0.51 0.61 0.63 0.63 0.68 0.78 0.94 1.25 1.63 2.20 2.50 2.54 2.51 2.52 2.60 2.55 2.35 2.08 1.92 1.91 1.88 1.96 1.87 1.79 1.77 1.80 2.00 2.05 2.13 2.25 2.26 2.18 2.17 2.30 2.32 2.26 2.11 2.02 1.92 1.81 1.81 1.81 1.71
0.96 0.63 0.88 1.21 0.96 1.00 1.12 1.21 1.44 1.90 2.16 2.24 2.37 2.43 2.47 2.53 2.60 2.46 2.21 2.09 2.13 2.20 2.18 2.01 1.86 1.79 1.86 1.97 2.04 2.09 2.11 2.03 2.05 2.06 2.06 2.10 1.98 1.89 1.90 1.93 1.81 1.70 1.62 1.53
1.06 1.21 1.82 1.61 0.97 1.03 1.26 1.41 1.39 1.50 1.64 1.84 2.03 2.15 2.31 2.45 2.60 2.61 2.50 2.48 2.51 2.49 2.26 2.06 1.97 1.92 1.96 1.96 2.00 2.11 2.04 1.91 1.85 1.88 1.84 1.86 1.88 1.87 1.86 1.86 1.78 1.69 1.56 1.47
1.45 1.80 1.99 1.70 1.08 1.03 1.48 1.87 1.52 1.48 1.49 1.52 1.55 1.76 2.22 2.29 2.36 2.54 2.52 2.53 2.50 2.44 2.26 2.04 1.92 1.87 1.86 1.90 1.85 1.86 1.78 1.73 1.65 1.63 1.69 1.74 1.75 1.86 1.87 1.79 1.72 1.60 1.51 1.50
1.75 2.21 2.53 2.19 1.14 0.86 1.44 2.44 1.79 1.56 1.58 1.65 1.85 2.18 2.17 1.91 1.89 2.04 2.08 2.12 2.21 2.24 2.15 1.96 1.81 1.75 1.79 1.82 1.80 1.74 1.70 1.68 1.58 1.56 1.60 1.64 1.66 1.74 1.72 1.73 1.72 1.57 1.49 1.51
1.79 2.27 2.45 1.58 1.00 1.12 2.37 2.86 2.00 1.68 1.66 1.80 2.03 2.12 1.74 1.52 1.56 1.63 1.81 1.84 1.89 2.10 2.14 1.92 1.72 1.68 1.74 1.74 1.71 1.56 1.53 1.61 1.65 1.63 1.61 1.61 1.63 1.66 1.66 1.66 1.71 1.68 1.63 1.62
1.86 2.42 2.61 1.42 1.20 1.82 2.30 1.85 1.71 1.67 1.63 1.65 1.57 1.45 1.37 1.32 1.31 1.32 1.54 1.72 1.75 1.90 1.84 1.70 1.61 1.71 1.77 1.72 1.59 1.53 1.58 1.72 1.74 1.75 1.61 1.55 1.72 1.75 1.68 1.67 1.63 1.69 1.71 1.68
2.09 2.41 2.01 1.33 1.35 1.47 1.50 1.55 1.45 1.42 1.31 1.24 1.27 1.25 1.27 1.32 1.36 1.36 1.47 1.61 1.67 1.74 1.69 1.59 1.57 1.70 1.80 1.71 1.57 1.62 1.72 1.78 1.82 1.73 1.72 1.69 1.74 1.75 1.68 1.66 1.58 1.54 1.54 1.54
1.67 1.68 1.35 1.17 1.14 1.14 1.18 1.31 1.27 1.21 1.21 1.08 1.15 1.21 1.28 1.32 1.40 1.42 1.45 1.51 1.60 1.67 1.61 1.52 1.46 1.47 1.55 1.50 1.46 1.61 1.78 1.77 1.79 1.78 1.76 1.75 1.72 1.62 1.56 1.52 1.46 1.42 1.38 1.38
1.69 1.49 1.27 1.10 0.97 0.98 1.08 1.09 1.09 1.15 1.22 1.18 1.21 1.28 1.24 1.19 1.24 1.30 1.36 1.43 1.49 1.58 1.60 1.46 1.34 1.32 1.32 1.38 1.50 1.66 1.68 1.63 1.63 1.66 1.67 1.67 1.55 1.43 1.42 1.36 1.25 1.18 1.15 1.13
1.76 1.47 1.53 1.35 1.02 0.94 1.14 1.23 1.14 1.12 1.18 1.13 1.12 1.18 1.23 1.26 1.23 1.26 1.32 1.39 1.48 1.46 1.43 1.33 1.21 1.17 1.21 1.29 1.37 1.51 1.51 1.46 1.45 1.52 1.55 1.49 1.46 1.33 1.23 1.13 1.14 1.08 1.04 1.06
1.26 1.12 1.14 1.10 1.05 1.14 1.26 1.22 1.08 1.07 1.05 1.03 1.08 1.10 1.19 1.28 1.21 1.22 1.28 1.32 1.41 1.34 1.27 1.26 1.20 1.19 1.21 1.18 1.19 1.30 1.36 1.34 1.26 1.26 1.35 1.36 1.34 1.31 1.32 1.13 1.03 1.01 0.99 1.02
0.95 1.05 1.23 1.23 1.28 1.29 1.22 1.10 1.01 0.97 0.98 0.96 0.94 1.01 1.04 1.08 1.01 1.06 1.20 1.26 1.23 1.19 1.18 1.22 1.21 1.17 1.09 1.10 1.20 1.27 1.25 1.19 1.17 1.21 1.21 1.20 1.23 1.16 1.14 1.20 1.21 1.14 1.07 1.06
0.89 0.96 1.08 1.03 1.02 1.08 1.04 0.93 0.92 0.95 0.95 0.99 0.96 1.00 1.00 0.99 0.96 0.93 1.04 1.06 1.07 1.11 1.12 1.09 1.07 1.10 1.06 1.05 1.14 1.18 1.14 1.11 1.11 1.12 1.15 1.18 1.19 1.11 1.03 1.04 1.10 1.15 1.16 1.08
0.76 0.71 0.74 0.78 0.85 0.92 0.94 0.89 0.91 1.00 0.98 1.03 1.07 1.03 0.98 0.92 0.88 0.84 0.89 0.95 1.10 1.15 1.05 1.00 0.97 1.00 1.00 1.04 1.10 1.10 1.06 1.02 1.00 1.03 1.07 1.12 1.15 1.11 1.09 1.07 1.03 1.10 1.13 1.04
0.83 0.84 0.81 0.74 0.72 0.75 0.80 0.81 0.86 0.97 0.96 0.96 0.96 0.86 0.80 0.81 0.85 0.86 0.93 0.98 1.02 1.02 0.93 0.91 0.87 0.79 0.81 0.91 1.00 0.97 0.90 0.86 0.83 0.81 0.88 0.94 0.96 0.98 1.01 0.98 1.00 1.04 0.98 0.95
0.80 0.80 0.75 0.70 0.66 0.63 0.67 0.72 0.84 0.88 0.88 0.85 0.82 0.79 0.78 0.81 0.85 0.84 0.86 0.91 0.91 0.88 0.84 0.80 0.77 0.74 0.70 0.75 0.84 0.85 0.82 0.80 0.72 0.71 0.75 0.80 0.81 0.80 0.80 0.84 0.86 0.86 0.83 0.83
0.62 0.59 0.59 0.61 0.58 0.54 0.58 0.64 0.76 0.78 0.78 0.77 0.82 0.89 0.90 0.86 0.86 0.81 0.82 0.90 0.92 0.92 0.85 0.76 0.79 0.74 0.71 0.73 0.77 0.74 0.75 0.78 0.75 0.74 0.78 0.81 0.80 0.77 0.72 0.70 0.76 0.81 0.81 0.77
0.57 0.52 0.54 0.54 0.50 0.48 0.53 0.55 0.62 0.67 0.70 0.69 0.75 0.86 0.94 0.94 0.86 0.84 0.90 0.99 0.99 0.90 0.79 0.76 0.72 0.73 0.72 0.69 0.70 0.69 0.73 0.77 0.76 0.72 0.76 0.81 0.81 0.76 0.70 0.67 0.75 0.82 0.84 0.83
0.59 0.57 0.55 0.54 0.53 0.53 0.57 0.60 0.62 0.59 0.58 0.63 0.71 0.77 0.87 0.91 0.85 0.88 0.97 1.05 0.96 0.80 0.71 0.74 0.71 0.68 0.68 0.67 0.65 0.65 0.69 0.72 0.73 0.70 0.71 0.77 0.76 0.71 0.70 0.70 0.70 0.79 0.86 0.87
0.53 0.59 0.63 0.60 0.58 0.62 0.64 0.65 0.62 0.57 0.50 0.52 0.55 0.60 0.71 0.78 0.75 0.79 0.87 0.98 0.91 0.78 0.68 0.66 0.62 0.64 0.67 0.66 0.61 0.61 0.66 0.70 0.69 0.72 0.74 0.70 0.70 0.70 0.70 0.71 0.71 0.72 0.76 0.83
0.58 0.66 0.71 0.66 0.62 0.58 0.55 0.60 0.62 0.59 0.55 0.51 0.50 0.55 0.65 0.70 0.66 0.69 0.73 0.71 0.72 0.75 0.68 0.65 0.67 0.67 0.65 0.60 0.62 0.67 0.68 0.69 0.70 0.71 0.71 0.71 0.70 0.73 0.75 0.73 0.74 0.75 0.80 0.85
0.64 0.71 0.69 0.64 0.62 0.63 0.63 0.59 0.59 0.58 0.54 0.51 0.51 0.54 0.59 0.61 0.59 0.57 0.59 0.62 0.64 0.64 0.59 0.65 0.67 0.63 0.60 0.55 0.61 0.67 0.70 0.67 0.65 0.68 0.71 0.73 0.71 0.73 0.79 0.84 0.86 0.84 0.84 0.80
0.70 0.76 0.70 0.67 0.74 0.80 0.73 0.63 0.57 0.55 0.52 0.52 0.52 0.52 0.50 0.51 0.54 0.56 0.57 0.55 0.59 0.57 0.52 0.56 0.57 0.54 0.51 0.55 0.62 0.65 0.68 0.69 0.70 0.69 0.69 0.76 0.75 0.74 0.75 0.80 0.83 0.79 0.73 0.72
0.78 0.79 0.73 0.72 0.75 0.77 0.74 0.72 0.70 0.64 0.60 0.58 0.56 0.50 0.46 0.47 0.49 0.54 0.58 0.57 0.60 0.59 0.54 0.55 0.56 0.56 0.55 0.58 0.61 0.64 0.68 0.67 0.69 0.70 0.69 0.75 0.80 0.79 0.77 0.80 0.83 0.77 0.70 0.68
0.84 0.77 0.74 0.69 0.64 0.63 0.70 0.75 0.75 0.71 0.65 0.63 0.60 0.53 0.49 0.49 0.47 0.47 0.50 0.53 0.55 0.53 0.54 0.58 0.56 0.51 0.52 0.55 0.59 0.63 0.67 0.64 0.63 0.67 0.69 0.71 0.77 0.82 0.81 0.78 0.80 0.78 0.73 0.70